Tiempo cada hora Abartzuza

Hoy, 20 Octubre, Martes

Tiempo Temperatura Precipitaciones Viento Presión Humedad
00:00 +13°C° 0 mm 6 mps 707 mmHg 82%
01:00 +13°C° 0 mm 6 mps 706 mmHg 83%
02:00 +13°C° 0 mm 6 mps 706 mmHg 83%
03:00 +12°C° 0 mm 7 mps 706 mmHg 84%
04:00 +12°C° 0.5 mm 7 mps 706 mmHg 86%
05:00 +12°C° 0.5 mm 7 mps 706 mmHg 88%
06:00 +12°C° 0.5 mm 8 mps 706 mmHg 89%
07:00 +12°C° 0.1 mm 8 mps 706 mmHg 88%
08:00 +12°C° 0.1 mm 8 mps 706 mmHg 86%
09:00 +13°C° 0.1 mm 9 mps 706 mmHg 84%
10:00 +13°C° 0 mm 9 mps 706 mmHg 83%
11:00 +13°C° 0 mm 9 mps 705 mmHg 82%
12:00 +13°C° 0 mm 10 mps 705 mmHg 81%
13:00 +14°C° 0.3 mm 10 mps 704 mmHg 79%
14:00 +14°C° 0.3 mm 11 mps 704 mmHg 77%
15:00 +14°C° 0.3 mm 12 mps 703 mmHg 74%
16:00 +14°C° 0 mm 12 mps 702 mmHg 73%
17:00 +14°C° 0 mm 11 mps 701 mmHg 72%
18:00 +14°C° 0 mm 11 mps 700 mmHg 71%
19:00 +14°C° 0 mm 12 mps 700 mmHg 73%
20:00 +14°C° 0 mm 12 mps 701 mmHg 76%
21:00 +14°C° 0 mm 12 mps 701 mmHg 79%
22:00 +14°C° 0 mm 12 mps 701 mmHg 79%
23:00 +14°C° 0 mm 12 mps 700 mmHg 79%

Mañana, 21 Octubre, Miércoles

Tiempo Temperatura Precipitaciones Viento Presión Humedad
00:00 +14°C° 0 mm 11 mps 700 mmHg 78%
01:00 +14°C° 0.2 mm 11 mps 701 mmHg 79%
02:00 +14°C° 0.2 mm 10 mps 701 mmHg 80%
03:00 +13°C° 0.2 mm 10 mps 702 mmHg 81%
04:00 +13°C° 0 mm 9 mps 702 mmHg 83%
05:00 +13°C° 0 mm 8 mps 702 mmHg 85%
06:00 +12°C° 0 mm 7 mps 703 mmHg 86%
07:00 +14°C° 0 mm 7 mps 703 mmHg 81%
08:00 +15°C° 0 mm 7 mps 704 mmHg 76%
09:00 +16°C° 0 mm 8 mps 705 mmHg 71%
10:00 +18°C° 0 mm 8 mps 705 mmHg 63%
11:00 +20°C° 0 mm 8 mps 705 mmHg 55%
12:00 +22°C° 0 mm 9 mps 706 mmHg 46%
13:00 +21°C° 0 mm 9 mps 705 mmHg 47%
14:00 +21°C° 0 mm 8 mps 705 mmHg 48%
15:00 +21°C° 0 mm 8 mps 705 mmHg 48%
16:00 +20°C° 0.1 mm 7 mps 705 mmHg 52%
17:00 +19°C° 0.1 mm 6 mps 705 mmHg 55%
18:00 +17°C° 0.1 mm 5 mps 706 mmHg 59%
19:00 +17°C° 0.1 mm 5 mps 706 mmHg 64%
20:00 +17°C° 0.1 mm 4 mps 706 mmHg 70%
21:00 +15°C° 0.1 mm 4 mps 706 mmHg 75%
22:00 +15°C° 0 mm 4 mps 706 mmHg 77%
23:00 +14°C° 0 mm 3 mps 707 mmHg 79%

Pasado mañana, 22 Octubre, Jueves

Tiempo Temperatura Precipitaciones Viento Presión Humedad
00:00 +14°C° 0 mm 3 mps 707 mmHg 81%
01:00 +14°C° 0.1 mm 3 mps 707 mmHg 81%
02:00 +14°C° 0.1 mm 3 mps 707 mmHg 81%
03:00 +13°C° 0.1 mm 3 mps 707 mmHg 82%
04:00 +13°C° 0 mm 3 mps 707 mmHg 84%
05:00 +13°C° 0 mm 3 mps 707 mmHg 86%
06:00 +12°C° 0 mm 3 mps 707 mmHg 87%
07:00 +13°C° 0 mm 3 mps 708 mmHg 84%
08:00 +14°C° 0 mm 3 mps 709 mmHg 80%
09:00 +15°C° 0 mm 4 mps 709 mmHg 77%
10:00 +17°C° 0.1 mm 4 mps 709 mmHg 71%
11:00 +18°C° 0.1 mm 4 mps 709 mmHg 65%
12:00 +19°C° 0.1 mm 5 mps 709 mmHg 59%
13:00 +19°C° 0.4 mm 4 mps 709 mmHg 60%
14:00 +19°C° 0.4 mm 4 mps 709 mmHg 60%
15:00 +19°C° 0.4 mm 4 mps 709 mmHg 61%
16:00 +18°C° 0.8 mm 3 mps 709 mmHg 67%
17:00 +17°C° 0.8 mm 3 mps 709 mmHg 74%
18:00 +14°C° 0.8 mm 3 mps 709 mmHg 81%
19:00 +15°C° 0.5 mm 2 mps 710 mmHg 82%
20:00 +15°C° 0.5 mm 1 mps 710 mmHg 83%
21:00 +15°C° 0.5 mm 1 mps 710 mmHg 83%
22:00 +14°C° 0.3 mm 1 mps 711 mmHg 86%
23:00 +13°C° 0.3 mm 1 mps 711 mmHg 88%

23 Octubre, Viernes

Tiempo Temperatura Precipitaciones Viento Presión Humedad
00:00 +13°C° 0.3 mm 1 mps 711 mmHg 90%
01:00 +12°C° 0.2 mm 1 mps 711 mmHg 91%
02:00 +12°C° 0.2 mm 1 mps 711 mmHg 91%
03:00 +12°C° 0.2 mm 1 mps 711 mmHg 92%
04:00 +12°C° 0.2 mm 1 mps 711 mmHg 92%
05:00 +12°C° 0.2 mm 1 mps 711 mmHg 92%
06:00 +12°C° 0.2 mm 1 mps 712 mmHg 92%
07:00 +13°C° 0.4 mm 1 mps 712 mmHg 87%
08:00 +14°C° 0.4 mm 1 mps 713 mmHg 83%
09:00 +15°C° 0.4 mm 1 mps 713 mmHg 78%
10:00 +16°C° 0.3 mm 2 mps 714 mmHg 72%
11:00 +17°C° 0.3 mm 3 mps 714 mmHg 65%
12:00 +18°C° 0.3 mm 3 mps 714 mmHg 59%
13:00 +17°C° 0.1 mm 3 mps 714 mmHg 61%
14:00 +17°C° 0.1 mm 3 mps 714 mmHg 63%
15:00 +17°C° 0.1 mm 3 mps 714 mmHg 64%
16:00 +14°C° 0 mm 3 mps 714 mmHg 73%
17:00 +12°C° 0 mm 3 mps 714 mmHg 81%
18:00 +12°C° 0 mm 2 mps 714 mmHg 90%
19:00 +10°C° 0 mm 2 mps 715 mmHg 91%
20:00 +10°C° 0 mm 2 mps 715 mmHg 92%
21:00 +10°C° 0 mm 1 mps 716 mmHg 94%
22:00 +10°C° 0 mm 1 mps 716 mmHg 94%
23:00 +10°C° 0 mm 1 mps 716 mmHg 93%

24 Octubre, Sábado

Tiempo Temperatura Precipitaciones Viento Presión Humedad
00:00 +9°C° 0 mm 1 mps 716 mmHg 93%
01:00 +9°C° 0 mm 1 mps 715 mmHg 92%
02:00 +9°C° 0 mm 1 mps 715 mmHg 91%
03:00 +9°C° 0 mm 1 mps 715 mmHg 90%
04:00 +9°C° 0 mm 1 mps 715 mmHg 90%
05:00 +7°C° 0 mm 0 mps 715 mmHg 89%
06:00 +7°C° 0 mm 0 mps 715 mmHg 88%
07:00 +10°C° 0 mm 1 mps 715 mmHg 83%
08:00 +11°C° 0 mm 1 mps 715 mmHg 77%
09:00 +13°C° 0 mm 1 mps 715 mmHg 72%
10:00 +14°C° 0 mm 1 mps 714 mmHg 66%
11:00 +15°C° 0 mm 2 mps 714 mmHg 60%
12:00 +17°C° 0 mm 2 mps 714 mmHg 53%
13:00 +17°C° 0 mm 2 mps 713 mmHg 52%
14:00 +17°C° 0 mm 2 mps 713 mmHg 50%
15:00 +17°C° 0 mm 2 mps 712 mmHg 49%
16:00 +16°C° 0 mm 2 mps 712 mmHg 54%
17:00 +14°C° 0 mm 2 mps 711 mmHg 60%
18:00 +12°C° 0 mm 1 mps 711 mmHg 66%
19:00 +12°C° 0 mm 1 mps 711 mmHg 67%
20:00 +12°C° 0 mm 1 mps 711 mmHg 68%
21:00 +10°C° 0 mm 2 mps 711 mmHg 69%
22:00 +10°C° 0 mm 2 mps 710 mmHg 70%
23:00 +9°C° 0 mm 2 mps 710 mmHg 72%

25 Octubre, Domingo

Tiempo Temperatura Precipitaciones Viento Presión Humedad
00:00 +9°C° 0 mm 2 mps 709 mmHg 73%
01:00 +10°C° 0 mm 1 mps 709 mmHg 75%
02:00 +9°C° 0 mm 1 mps 708 mmHg 76%
03:00 +9°C° 0 mm 1 mps 707 mmHg 78%
04:00 +9°C° 0 mm 1 mps 707 mmHg 79%
05:00 +9°C° 0 mm 1 mps 707 mmHg 81%
06:00 +7°C° 0 mm 2 mps 707 mmHg 82%
07:00 +9°C° 0 mm 2 mps 707 mmHg 77%
08:00 +10°C° 0 mm 2 mps 707 mmHg 73%
09:00 +11°C° 0 mm 3 mps 707 mmHg 68%
10:00 +12°C° 0 mm 3 mps 707 mmHg 62%
11:00 +14°C° 0 mm 3 mps 707 mmHg 57%
12:00 +16°C° 0 mm 3 mps 707 mmHg 52%
13:00 +14°C° 0.2 mm 3 mps 707 mmHg 57%
14:00 +14°C° 0.2 mm 2 mps 707 mmHg 63%
15:00 +13°C° 0.2 mm 2 mps 707 mmHg 68%
16:00 +11°C° 1.2 mm 3 mps 707 mmHg 73%
17:00 +9°C° 1.2 mm 3 mps 707 mmHg 79%
18:00 +6°C° 1.2 mm 4 mps 707 mmHg 84%
19:00 +7°C° 0.1 mm 3 mps 708 mmHg 85%
20:00 +5°C° 0.1 mm 3 mps 708 mmHg 86%
21:00 +6°C° 0.1 mm 2 mps 709 mmHg 87%
22:00 +6°C° 0 mm 2 mps 709 mmHg 87%
23:00 +6°C° 0 mm 2 mps 709 mmHg 86%

26 Octubre, Lunes

Tiempo Temperatura Precipitaciones Viento Presión Humedad
00:00 +6°C° 0 mm 2 mps 709 mmHg 86%
01:00 +6°C° 0 mm 2 mps 710 mmHg 87%
02:00 +6°C° 0 mm 2 mps 710 mmHg 87%
03:00 +5°C° 0 mm 2 mps 710 mmHg 88%
04:00 +5°C° 0 mm 2 mps 710 mmHg 88%
05:00 +5°C° 0 mm 2 mps 711 mmHg 88%
06:00 +5°C° 0 mm 2 mps 711 mmHg 87%
07:00 +6°C° 0 mm 2 mps 712 mmHg 82%
08:00 +7°C° 0 mm 3 mps 712 mmHg 77%
09:00 +8°C° 0 mm 3 mps 713 mmHg 72%
10:00 +8°C° 0 mm 4 mps 713 mmHg 68%
11:00 +9°C° 0 mm 5 mps 713 mmHg 64%
12:00 +10°C° 0 mm 5 mps 713 mmHg 61%
13:00 +12°C° 0 mm 5 mps 713 mmHg 59%
14:00 +12°C° 0 mm 5 mps 713 mmHg 58%
15:00 +12°C° 0 mm 5 mps 713 mmHg 57%
16:00 +11°C° 0 mm 4 mps 713 mmHg 64%
17:00 +10°C° 0 mm 3 mps 713 mmHg 71%
18:00 +9°C° 0 mm 2 mps 714 mmHg 78%
19:00 +8°C° 0 mm 2 mps 714 mmHg 81%
20:00 +8°C° 0 mm 2 mps 714 mmHg 84%
21:00 +8°C° 0 mm 1 mps 714 mmHg 87%
22:00 +8°C° 0 mm 1 mps 714 mmHg 86%
23:00 +8°C° 0 mm 1 mps 714 mmHg 85%
Mostrar más

Necesitamos Su Consentimiento

Meteoprog y nuestros Proveedores de Servicios pueden almacenar y acceder a sus datos personales como cookies, identificadores de dispositivo u otras tecnologías similares de su dispositivo y procesar dichos datos para personalizar contenido y anuncios, además de ofrecer funciones de redes sociales y analizar el tráfico.

  • Almacenar y/o acceder a información en su dispositivo

    Se puede almacenar o acceder a cookies, identificadores de dispositivo u otra información de su dispositivo para los fines anteriormente indicados.

  • Anuncios y contenido personalizados, medición de anuncios y contenido, percepciones del público, y desarrollo de productos

    Los anuncios y el contenido pueden personalizarse en base a su perfil. Se pueden añadir más datos para personalizar mejor los anuncios y contenidos. Se puede medir el rendimiento de los anuncios y contenidos. Se puede obtener la percepción sobre el público que ha visto los anuncios y contenidos. Dichos datos pueden usarse para desarrollar o mejorar la experiencia del usuario, sistemas y software.

Al hacer clic en ‘Estoy De Acuerdo’ usted permitirá el uso de las cookies, identificadores de dispositivo, balizas web u otras tecnologías similares indicadas. Su configuración puede cambiarse desde el navegador de su dispositivo.

Para ciertos fines, los intereses legítimos pueden ser considerados por encima del consentimiento. Puede leer más sobre ello en nuestra Política de Privacidad y Cookies.